THORAD AGENA D DEB, 5696

Orbit data source: Space-Track

THORAD AGENA D DEB, 5696 is space debris in SSO originally from a launch on Wed, 08 Apr 1970 UTC launched from the Air Force Western Test Range (AFWTR). Debris objects in space refer to the collection of defunct objects orbiting the Earth. Examples of debris include non-operational satellites, rocket bodies, and fragments generated from explosions, collisions, or faulty payload assembly.

Loading next visibility...
Identifier
5696, 1970-025MB
Orbit
SSO
Country
Flag of USUS
Related business
Manufacturer
Unknown
Mission
Spacecraft
Bus & Motor
Unknown
Mass
Unknown
Launch date (UTC)
1970-04-08 (56 years ago)
Launch vehicle
Unknown
Launch site
Air Force Western Test Range (AFWTR)
Object type
Payload
Rocket body
Debris
Shape & HBR
Unknown shape, 0.1 m
Radar Cross Section
Medium (>0.1 m² and <1 m²)

Expand to show TLE details & history
Last TLE update: 7 hours ago

TLE from 7 hours ago
0 THORAD AGENA D DEB
1 05696U 70025MB  26256.24979225  .00000241  00000-0  40030-3 0  9998
2 05696  99.5027 353.4372 0053466 307.4082  78.6291 13.56431901778384
Epoch: 2026-09-13T05:59Z
TLE epoch observation values (Epoch: 2026-09-13T05:59:42.050Z)
Latitude
26.27976°
Longitude
-93.45191°
Altitude
1,044.158 km
Speed
7.336 km/s
True Right ascension
23h 14m 52s
True Declination
26° 08' 55"
Sunlit
Object was in full shadow at epoch
Visualization orbit readout
Latitude
Unknown
Longitude
Unknown
Altitude
Unknown
Speed
Unknown
Apparent Right ascension
Unknown
Apparent Declination
Unknown
Sunlit
N/A
Visualization observer readout
Local Sidereal Time
05:08:48
Azimuth
Unknown
Elevation
Unknown
Doppler factor
Unknown
Orbital elements
Apogee altitude
1,085.664 km
Perigee altitude
1,006.277 km
Semi-major axis
7,424.107 km
Eccentricity
0.00535
Inclination
99.5027°
RAAN
353.4372°
Arg. of periapsis
307.4082°
True anomaly
79.23053°
Mean anomaly
78.6291°
Eccentric anomaly
78.92974°
Mean motion
3.39294 °/min
Orbital period
106.1 mins
BSTAR
0.0004003
Loading maneuver chart data...
Computing Atmospheric mass density...

Documentation

Showing up to 5 results
|